period_start,C,m1,H,J0,J1,J2,J3,J4,J5,JA,JB,JC,JD,JJ,JK,JN,#
2017-03-29 00:02:01,0.07,0.43,0.00,21.64,25.07,28.95,14.60,49.63,1012.77,2039.93,3365.68,2980.13,3408.94,599.90,596.40,4.80,0000 0000 0000 0000 000000
2017-03-29 00:07:02,0.06,0.43,0.00,21.65,25.09,28.96,14.62,49.48,1012.72,2039.88,3364.29,2979.12,3407.68,600.05,596.49,4.85,0000 0000 0000 0000 000000
2017-03-29 00:12:03,0.05,0.43,0.00,21.68,25.10,28.93,14.55,49.27,1012.72,2039.83,3362.93,2978.13,3406.55,599.76,596.32,4.90,0000 0000 0000 0000 000000
2017-03-29 00:17:04,0.05,0.44,0.00,21.67,25.10,28.95,14.63,49.65,1012.70,2039.60,3361.56,2977.10,3405.34,600.24,596.62,4.95,0000 0000 0000 0000 000000
2017-03-29 00:22:05,0.07,0.44,0.00,21.69,25.10,28.99,14.53,49.55,1012.49,2039.60,3359.96,2976.04,3403.91,599.83,596.02,5.00,0000 0000 0000 0000 000000
2017-03-29 00:27:07,0.07,0.44,0.00,21.69,25.12,29.01,14.62,49.74,1012.24,2039.49,3358.52,2974.88,3402.64,600.18,596.27,5.05,0000 0000 0000 0000 000000
2017-03-29 00:32:08,0.06,0.45,0.00,21.66,25.12,29.01,14.60,49.65,1012.21,2039.37,3356.93,2973.70,3401.27,600.07,596.22,5.10,0000 0000 0000 0000 000000
2017-03-29 00:37:10,0.07,0.45,0.00,21.67,25.12,29.00,14.59,49.86,1012.06,2039.21,3355.39,2972.54,3399.78,599.93,595.98,5.15,0000 0000 0000 0000 000000
2017-03-29 00:42:11,0.07,0.45,0.00,21.68,25.14,29.03,14.50,49.85,1012.03,2039.14,3353.85,2971.41,3398.40,599.99,595.99,5.20,0000 0000 0000 0000 000000
2017-03-29 00:47:12,0.06,0.46,0.00,21.69,25.15,29.00,14.57,49.83,1011.80,2039.06,3352.37,2970.32,3397.07,599.87,595.65,5.25,0000 0000 0000 0000 000000
2017-03-29 00:52:13,0.07,0.46,0.00,21.70,25.15,29.04,14.58,49.93,1011.74,2039.08,3350.89,2969.31,3395.78,599.91,595.71,5.30,0000 0000 0000 0000 000000
2017-03-29 00:57:14,0.07,0.46,0.00,21.72,25.16,29.01,14.53,50.13,1011.73,2039.04,3349.38,2968.22,3394.43,600.00,595.66,5.35,0000 0000 0000 0000 000000
2017-03-29 01:02:16,0.06,0.47,0.00,21.71,25.17,29.03,14.55,49.84,1012.06,2039.03,3347.98,2967.20,3393.18,600.16,596.13,5.40,0000 0000 0000 0000 000000
2017-03-29 01:07:17,0.09,0.47,0.00,21.71,25.17,29.03,14.63,49.78,1012.22,2039.02,3346.55,2965.96,3391.72,600.13,596.10,5.45,0000 0000 0000 0000 000000
2017-03-29 01:12:18,0.08,0.48,0.00,21.72,25.17,29.04,14.47,49.48,1012.23,2039.01,3344.85,2964.63,3390.43,599.92,595.95,5.50,0000 0000 0000 0000 000000
2017-03-29 01:17:19,0.06,0.48,0.00,21.72,25.19,29.06,14.51,49.33,1012.40,2039.00,3343.56,2963.69,3389.21,599.81,595.87,5.55,0000 0000 0000 0000 000000
2017-03-29 01:22:21,0.06,0.48,0.00,21.72,25.20,29.08,14.59,49.19,1012.69,2039.00,3342.12,2962.66,3387.95,599.98,596.25,5.60,0000 0000 0000 0000 000000
2017-03-29 01:27:22,0.08,0.49,0.00,21.75,25.20,29.02,14.59,49.23,1012.71,2039.00,3340.59,2961.49,3386.61,600.23,596.41,5.65,0000 0000 0000 0000 000000
2017-03-29 01:32:23,0.07,0.49,0.00,21.75,25.20,29.04,14.54,49.00,1012.69,2039.00,3338.98,2960.37,3385.19,599.89,596.10,5.70,0000 0000 0000 0000 000000
2017-03-29 01:37:25,0.09,0.49,0.00,21.80,25.21,29.10,14.48,48.96,1012.65,2039.00,3337.37,2959.01,3383.59,600.10,596.10,5.75,0000 0000 0000 0000 000000
2017-03-29 01:42:26,0.10,0.50,0.00,21.85,25.22,29.11,14.51,48.92,1012.70,2039.00,3335.31,2957.28,3381.52,599.69,595.71,5.80,0000 0000 0000 0000 000000
2017-03-29 01:47:27,0.11,0.51,0.00,21.87,25.22,29.09,14.54,48.91,1012.71,2039.00,3333.40,2955.63,3379.57,600.03,596.05,5.85,0000 0000 0000 0000 000000
2017-03-29 01:52:28,0.10,0.51,0.00,21.91,25.24,29.08,14.49,48.92,1012.71,2038.99,3331.11,2954.17,3377.61,599.85,595.79,5.90,0000 0000 0000 0000 000000
2017-03-29 01:57:30,0.08,0.52,0.00,21.95,25.25,29.13,14.52,48.92,1012.71,2038.99,3329.52,2952.97,3376.07,599.77,595.67,5.95,0000 0000 0000 0000 000000
2017-03-29 02:02:31,0.08,0.52,0.00,21.98,25.26,29.16,14.52,48.88,1012.71,2038.99,3327.94,2951.77,3374.62,600.20,595.96,6.00,0000 0000 0000 0000 000000
2017-03-29 02:07:32,0.08,0.52,0.00,22.01,25.27,29.17,14.54,48.96,1012.54,2038.97,3326.41,2950.53,3373.09,600.01,595.65,6.05,0000 0000 0000 0000 000000
2017-03-29 02:12:33,0.09,0.53,0.00,21.99,25.30,29.17,14.54,49.23,1012.25,2038.96,3324.66,2949.11,3371.42,599.83,595.40,6.10,0000 0000 0000 0000 000000
2017-03-29 02:17:35,0.11,0.53,0.00,21.98,25.31,29.20,14.54,49.33,1012.16,2038.98,3322.72,2947.56,3369.56,600.14,595.48,6.15,0000 0000 0000 0000 000000
2017-03-29 02:22:36,0.12,0.54,0.00,22.02,25.32,29.22,14.57,49.24,1011.85,2038.96,3320.53,2945.75,3367.41,600.39,595.60,6.20,0000 0000 0000 0000 000000
2017-03-29 02:27:37,0.08,0.54,0.00,22.07,25.35,29.27,14.46,49.41,1011.75,2038.80,3318.38,2944.08,3365.31,599.62,594.67,6.25,0000 0000 0000 0000 000000
2017-03-29 02:32:38,0.10,0.55,0.00,22.08,25.36,29.32,14.47,49.61,1011.73,2038.63,3316.32,2942.53,3363.37,600.06,595.03,6.30,0000 0000 0000 0000 000000
2017-03-29 02:37:40,0.11,0.56,0.00,22.11,25.38,29.33,14.56,49.99,1011.68,2038.54,3314.11,2940.70,3361.15,600.36,595.33,6.35,0000 0000 0000 0000 000000
2017-03-29 02:42:41,0.08,0.56,0.00,22.14,25.40,29.35,14.51,49.97,1011.62,2038.26,3311.93,2938.89,3358.88,600.23,595.09,6.40,0000 0000 0000 0000 000000
2017-03-29 02:47:43,0.11,0.57,0.00,22.14,25.42,29.34,14.56,50.04,1011.41,2038.05,3309.71,2937.13,3356.54,600.25,594.95,6.45,0000 0000 0000 0000 000000
2017-03-29 02:52:44,0.14,0.57,0.00,22.13,25.44,29.40,14.57,50.13,1011.28,2038.04,3307.18,2935.00,3353.92,600.11,594.68,6.50,0000 0000 0000 0000 000000
2017-03-29 02:57:46,0.08,0.58,0.00,22.15,25.46,29.41,14.58,50.06,1011.30,2038.00,3305.34,2933.43,3352.05,600.21,594.84,6.55,0000 0000 0000 0000 000000
2017-03-29 03:02:47,0.10,0.58,0.00,22.14,25.48,29.43,14.53,50.02,1011.26,2038.00,3303.55,2931.90,3350.05,600.16,594.82,6.60,0000 0000 0000 0000 000000
2017-03-29 03:07:48,0.09,0.59,0.00,22.15,25.50,29.45,14.48,49.90,1011.41,2038.00,3301.77,2930.61,3348.54,599.93,594.66,6.65,0000 0000 0000 0000 000000
2017-03-29 03:12:50,0.07,0.59,0.00,22.16,25.52,29.45,14.47,49.72,1011.65,2037.99,3300.17,2929.33,3346.98,599.97,594.76,6.70,0000 0000 0000 0000 000000
2017-03-29 03:17:51,0.07,0.60,0.00,22.17,25.53,29.45,14.52,49.76,1011.31,2037.99,3298.62,2928.25,3345.60,600.07,594.69,6.75,0000 0000 0000 0000 000000
2017-03-29 03:22:52,0.07,0.60,0.00,22.18,25.55,29.46,14.45,49.87,1011.26,2037.98,3297.14,2927.17,3344.29,599.80,594.38,6.80,0000 0000 0000 0000 000000
2017-03-29 03:27:54,0.09,0.60,0.00,22.18,25.57,29.49,14.63,50.10,1011.25,2037.98,3295.51,2925.83,3342.70,600.18,594.69,6.85,0000 0000 0000 0000 000000
2017-03-29 03:32:55,0.08,0.61,0.00,22.18,25.57,29.52,14.50,50.08,1011.25,2037.93,3293.80,2924.52,3341.07,600.11,594.55,6.91,0000 0000 0000 0000 000000
2017-03-29 03:37:56,0.08,0.61,0.00,22.18,25.60,29.49,14.58,50.11,1011.26,2037.89,3292.20,2923.26,3339.60,600.16,594.70,6.96,0000 0000 0000 0000 000000
2017-03-29 03:42:57,0.05,0.62,0.00,22.18,25.60,29.49,14.50,50.23,1011.25,2037.74,3290.66,2922.02,3338.07,599.81,594.25,7.01,0000 0000 0000 0000 000000
2017-03-29 03:47:59,0.07,0.62,0.00,22.19,25.62,29.52,14.48,50.14,1011.25,2037.42,3288.90,2920.70,3336.56,599.74,594.22,7.06,0000 0000 0000 0000 000000
2017-03-29 03:53:00,0.05,0.62,0.00,22.18,25.63,29.48,14.51,50.32,1011.25,2037.15,3287.41,2919.47,3335.02,599.68,594.18,7.11,0000 0000 0000 0000 000000
2017-03-29 03:58:01,0.07,0.63,0.00,22.17,25.65,29.47,14.53,50.25,1011.25,2037.15,3285.90,2918.46,3333.69,599.71,594.27,7.16,0000 0000 0000 0000 000000
2017-03-29 04:03:02,0.06,0.63,0.00,22.16,25.65,29.46,14.57,50.32,1011.22,2037.13,3284.49,2917.33,3332.40,600.26,594.76,7.21,0000 0000 0000 0000 000000
2017-03-29 04:08:04,0.07,0.63,0.00,22.15,25.66,29.45,14.52,50.44,1011.22,2037.10,3282.94,2916.09,3330.91,599.77,594.41,7.26,0000 0000 0000 0000 000000
2017-03-29 04:13:05,0.08,0.64,0.00,22.14,25.67,29.50,14.59,50.24,1011.25,2037.04,3281.43,2914.90,3329.51,600.07,594.79,7.31,0000 0000 0000 0000 000000
2017-03-29 04:18:07,0.06,0.64,0.00,22.15,25.67,29.46,14.56,50.27,1011.25,2037.03,3280.04,2913.89,3328.33,600.04,594.70,7.36,0000 0000 0000 0000 000000
2017-03-29 04:23:08,0.06,0.64,0.00,22.15,25.67,29.48,14.56,50.13,1011.25,2037.00,3278.63,2912.89,3327.11,600.22,594.78,7.41,0000 0000 0000 0000 000000
2017-03-29 04:28:10,0.07,0.65,0.00,22.13,25.69,29.44,14.56,50.46,1011.25,2037.01,3277.36,2911.85,3325.89,599.83,594.37,7.46,0000 0000 0000 0000 000000
2017-03-29 04:33:11,0.08,0.65,0.00,22.14,25.69,29.42,14.53,50.12,1011.25,2037.01,3275.77,2910.68,3324.61,600.18,594.84,7.51,0000 0000 0000 0000 000000
2017-03-29 04:38:12,0.06,0.65,0.00,22.15,25.70,29.43,14.55,50.23,1011.25,2037.01,3274.58,2909.72,3323.43,599.87,594.47,7.56,0000 0000 0000 0000 000000
2017-03-29 04:43:13,0.06,0.66,0.00,22.15,25.70,29.45,14.48,50.25,1011.24,2037.00,3273.21,2908.67,3322.17,599.66,594.19,7.61,0000 0000 0000 0000 000000
2017-03-29 04:48:15,0.06,0.66,0.00,22.16,25.70,29.43,14.47,50.21,1011.24,2037.00,3271.88,2907.70,3320.93,599.59,594.30,7.66,0000 0000 0000 0000 000000
2017-03-29 04:53:16,0.07,0.66,0.00,22.18,25.70,29.48,14.54,50.14,1011.24,2037.00,3270.58,2906.72,3319.79,600.06,594.53,7.71,0000 0000 0000 0000 000000
2017-03-29 04:58:18,0.11,0.67,0.00,22.17,25.70,29.43,14.54,50.02,1011.24,2037.00,3268.99,2905.38,3318.24,599.96,594.47,7.76,0000 0000 0000 0000 000000
2017-03-29 05:03:19,0.07,0.68,0.00,22.17,25.70,29.46,14.55,49.95,1011.24,2037.00,3267.25,2903.87,3316.36,600.32,594.84,7.81,0000 0000 0000 0000 000000
2017-03-29 05:08:20,0.06,0.68,0.00,22.19,25.71,29.47,14.56,50.08,1011.24,2037.00,3266.01,2902.99,3315.41,600.33,594.85,7.86,0000 0000 0000 0000 000000
2017-03-29 05:13:21,0.06,0.68,0.00,22.18,25.72,29.44,14.56,50.08,1011.23,2037.00,3264.80,2902.06,3314.32,600.25,594.82,7.91,0000 0000 0000 0000 000000
2017-03-29 05:18:22,0.06,0.68,0.00,22.19,25.72,29.47,14.58,50.06,1011.24,2037.00,3263.59,2901.14,3313.27,600.26,594.85,7.96,0000 0000 0000 0000 000000
2017-03-29 05:23:24,0.06,0.69,0.00,22.20,25.72,29.48,14.48,49.96,1011.15,2037.00,3262.49,2900.28,3312.22,599.47,593.88,8.01,0000 0000 0000 0000 000000
2017-03-29 05:28:25,0.06,0.69,0.00,22.21,25.72,29.46,14.55,50.18,1010.90,2037.00,3261.15,2899.32,3310.97,600.32,594.51,8.06,0000 0000 0000 0000 000000
2017-03-29 05:33:27,0.07,0.69,0.00,22.22,25.72,29.46,14.54,50.28,1010.77,2037.00,3259.77,2898.31,3309.81,599.95,594.12,8.11,0000 0000 0000 0000 000000
2017-03-29 05:38:28,0.07,0.70,0.00,22.24,25.73,29.47,14.51,50.00,1010.78,2037.00,3258.37,2897.28,3308.59,599.99,594.16,8.16,0000 0000 0000 0000 000000
2017-03-29 05:43:29,0.06,0.70,0.00,22.24,25.74,29.49,14.45,50.08,1010.77,2037.00,3257.05,2896.32,3307.41,599.81,594.00,8.21,0000 0000 0000 0000 000000
2017-03-29 05:48:30,0.07,0.71,0.00,22.25,25.75,29.50,14.55,50.19,1010.77,2036.99,3255.56,2895.18,3306.09,600.00,594.00,8.26,0000 0000 0000 0000 000000
2017-03-29 05:53:32,0.06,0.71,0.00,22.24,25.75,29.50,14.53,50.02,1010.77,2036.99,3254.33,2894.26,3304.96,600.23,594.37,8.31,0000 0000 0000 0000 000000
2017-03-29 05:58:33,0.06,0.71,0.00,22.25,25.75,29.51,14.56,50.23,1010.76,2036.99,3252.97,2893.39,3303.88,600.09,594.16,8.36,0000 0000 0000 0000 000000
2017-03-29 06:03:35,0.07,0.71,0.00,22.25,25.75,29.52,14.57,50.12,1010.76,2036.99,3251.73,2892.39,3302.81,600.27,594.18,8.41,0000 0000 0000 0000 000000
2017-03-29 06:08:36,0.07,0.72,0.00,22.27,25.75,29.52,14.47,50.15,1010.76,2036.99,3250.40,2891.49,3301.71,599.88,593.95,8.46,0000 0000 0000 0000 000000
2017-03-29 06:13:37,0.06,0.72,0.00,22.27,25.76,29.49,14.59,50.12,1010.76,2036.99,3249.25,2890.60,3300.58,600.54,594.65,8.51,0000 0000 0000 0000 000000
2017-03-29 06:18:39,0.05,0.72,0.00,22.25,25.77,29.53,14.54,50.08,1010.75,2036.98,3247.92,2889.74,3299.54,600.10,594.23,8.56,0000 0000 0000 0000 000000
2017-03-29 06:23:40,0.05,0.73,0.00,22.26,25.77,29.54,14.51,50.02,1010.74,2036.99,3246.73,2888.95,3298.56,600.00,594.11,8.61,0000 0000 0000 0000 000000
2017-03-29 06:28:41,0.06,0.73,0.00,22.26,25.77,29.52,14.43,50.01,1010.73,2036.99,3245.58,2888.09,3297.61,599.73,593.74,8.66,0000 0000 0000 0000 000000
2017-03-29 06:33:43,0.06,0.73,0.00,22.27,25.77,29.53,14.52,49.89,1010.76,2036.99,3244.35,2887.29,3296.65,600.08,594.14,8.71,0000 0000 0000 0000 000000
2017-03-29 06:38:44,0.06,0.74,0.00,22.29,25.77,29.54,14.52,49.81,1010.77,2036.99,3243.13,2886.34,3295.60,600.22,594.17,8.76,0000 0000 0000 0000 000000
2017-03-29 06:43:46,0.06,0.74,0.00,22.29,25.78,29.56,14.55,49.71,1011.01,2036.99,3241.83,2885.51,3294.50,600.29,594.47,8.81,0000 0000 0000 0000 000000
2017-03-29 06:48:47,0.06,0.74,0.00,22.29,25.79,29.54,14.52,49.62,1011.23,2036.98,3240.65,2884.62,3293.46,599.70,594.01,8.86,0000 0000 0000 0000 000000
2017-03-29 06:53:48,0.05,0.75,0.00,22.29,25.80,29.54,14.49,49.51,1011.26,2036.98,3239.50,2883.84,3292.50,599.73,593.98,8.91,0000 0000 0000 0000 000000
2017-03-29 06:58:50,0.05,0.75,0.00,22.32,25.80,29.57,14.47,49.53,1011.27,2036.97,3238.33,2882.97,3291.52,599.92,594.17,8.96,0000 0000 0000 0000 000000
2017-03-29 07:03:51,0.06,0.75,0.00,22.33,25.80,29.57,14.42,49.50,1011.29,2036.96,3237.06,2882.09,3290.49,599.94,594.18,9.01,0000 0000 0000 0000 000000
2017-03-29 07:08:53,0.06,0.76,0.00,22.33,25.80,29.58,14.49,49.61,1011.29,2036.98,3235.82,2881.19,3289.40,599.85,594.14,9.06,0000 0000 0000 0000 000000
2017-03-29 07:13:54,0.06,0.76,0.00,22.38,25.81,29.59,14.49,49.46,1011.34,2036.96,3234.61,2880.31,3288.38,600.11,594.44,9.11,0000 0000 0000 0000 000000
2017-03-29 07:18:56,0.05,0.76,0.00,22.31,25.82,29.60,14.50,49.63,1011.47,2036.96,3233.42,2879.52,3287.39,599.79,594.25,9.16,0000 0000 0000 0000 000000
2017-03-29 07:23:57,0.05,0.77,0.00,22.28,25.82,29.62,14.55,49.48,1011.66,2036.94,3232.08,2878.74,3286.25,600.43,594.97,9.21,0000 0000 0000 0000 000000
2017-03-29 07:28:58,0.05,0.77,0.00,22.32,25.83,29.66,14.45,49.38,1011.73,2036.85,3230.74,2877.84,3285.12,599.79,594.35,9.26,0000 0000 0000 0000 000000
2017-03-29 07:34:00,0.06,0.77,0.00,22.38,25.85,29.66,14.52,49.44,1011.73,2036.75,3229.48,2876.89,3283.98,599.98,594.38,9.32,0000 0000 0000 0000 000000
2017-03-29 07:39:01,0.06,0.77,0.00,22.41,25.85,29.63,14.50,49.33,1011.73,2036.70,3228.15,2875.94,3282.86,600.03,594.43,9.37,0000 0000 0000 0000 000000
2017-03-29 07:44:02,0.06,0.78,0.00,22.32,25.86,29.65,14.56,49.40,1011.74,2036.59,3226.78,2874.96,3281.74,600.29,594.77,9.42,0000 0000 0000 0000 000000
2017-03-29 07:49:03,0.04,0.78,0.00,22.36,25.87,29.67,14.50,49.19,1011.75,2036.33,3225.31,2873.87,3280.49,600.23,594.66,9.47,0000 0000 0000 0000 000000
2017-03-29 07:54:04,0.08,0.78,0.00,22.44,25.88,29.69,14.59,49.30,1011.84,2036.22,3223.76,2872.76,3279.23,600.28,594.65,9.52,0000 0000 0000 0000 000000
2017-03-29 07:59:05,0.04,0.79,0.00,22.43,25.90,29.72,14.54,49.41,1011.75,2036.12,3222.48,2871.79,3277.87,600.49,595.03,9.57,0000 0000 0000 0000 000000
2017-03-29 08:04:07,0.07,0.79,0.00,22.41,25.90,29.72,14.53,49.42,1011.74,2036.06,3221.02,2870.75,3276.66,600.05,594.31,9.62,0000 0000 0000 0000 000000
2017-03-29 08:09:08,0.06,0.79,0.00,22.45,25.92,29.77,14.45,49.25,1011.78,2036.04,3219.73,2869.82,3275.52,599.70,594.01,9.67,0000 0000 0000 0000 000000
2017-03-29 08:14:09,0.05,0.80,0.00,22.51,25.93,29.77,14.54,49.17,1012.03,2036.02,3218.51,2868.93,3274.42,600.11,594.42,9.72,0000 0000 0000 0000 000000
2017-03-29 08:19:10,0.06,0.80,0.00,22.53,25.95,29.78,14.51,49.29,1012.16,2036.01,3217.14,2867.90,3273.28,599.88,594.28,9.77,0000 0000 0000 0000 000000
2017-03-29 08:24:11,0.07,0.80,0.00,22.50,25.96,29.82,14.54,49.18,1012.19,2036.00,3215.75,2866.87,3272.07,600.56,594.89,9.82,0000 0000 0000 0000 000000
2017-03-29 08:29:13,0.06,0.81,0.00,22.53,25.97,29.81,14.50,49.26,1012.21,2036.00,3214.40,2865.89,3270.85,600.04,594.36,9.87,0000 0000 0000 0000 000000
2017-03-29 08:34:14,0.06,0.81,0.00,22.58,26.00,29.87,14.54,49.18,1012.22,2036.00,3213.03,2864.91,3269.65,600.27,594.61,9.92,0000 0000 0000 0000 000000
2017-03-29 08:39:15,0.07,0.81,0.00,22.58,26.01,29.84,14.53,49.16,1012.23,2036.00,3211.73,2863.97,3268.59,600.17,594.55,9.97,0000 0000 0000 0000 000000
2017-03-29 08:44:17,0.06,0.82,0.00,22.57,26.02,29.87,14.52,49.16,1012.23,2035.99,3210.40,2863.03,3267.39,600.24,594.46,10.02,0000 0000 0000 0000 000000
2017-03-29 08:49:17,0.06,0.82,0.00,22.62,26.05,29.93,14.51,49.16,1012.26,2035.99,3209.11,2862.03,3266.28,600.06,594.28,10.07,0000 0000 0000 0000 000000
2017-03-29 08:54:19,0.06,0.82,0.00,22.64,26.06,29.93,14.54,49.08,1012.48,2035.97,3207.79,2861.06,3265.08,600.05,594.42,10.12,0000 0000 0000 0000 000000
2017-03-29 08:59:20,0.06,0.83,0.00,22.63,26.07,29.96,14.50,49.13,1012.70,2035.95,3206.46,2860.09,3263.96,599.81,594.27,10.17,0000 0000 0000 0000 000000
2017-03-29 09:04:21,0.06,0.83,0.00,22.70,26.10,29.97,14.54,49.16,1012.71,2035.93,3205.05,2859.06,3262.87,600.06,594.44,10.22,0000 0000 0000 0000 000000
2017-03-29 09:09:23,0.02,0.83,0.00,22.74,26.11,30.00,14.49,49.20,1012.71,2035.50,3203.72,2858.04,3261.67,599.99,594.26,10.27,0000 0000 0000 0000 000000
2017-03-29 09:14:24,0.05,0.83,0.00,22.70,26.13,30.04,14.54,49.09,1012.71,2035.13,3202.37,2857.04,3260.53,600.23,594.53,10.32,0000 0000 0000 0000 000000
2017-03-29 09:19:25,0.05,0.84,0.00,22.74,26.15,30.04,14.53,49.17,1012.71,2035.03,3201.04,2856.07,3259.43,600.12,594.25,10.37,0000 0000 0000 0000 000000
2017-03-29 09:24:26,0.07,0.84,0.00,22.73,26.17,30.07,14.51,49.09,1012.71,2035.01,3199.73,2855.18,3258.30,599.95,594.31,10.42,0000 0000 0000 0000 000000
2017-03-29 09:29:27,0.06,0.84,0.00,22.76,26.20,30.10,14.50,49.02,1012.76,2035.00,3198.51,2854.19,3257.12,600.04,594.19,10.47,0000 0000 0000 0000 000000
2017-03-29 09:34:28,0.06,0.85,0.00,22.80,26.21,30.12,14.47,48.98,1013.04,2035.00,3197.24,2853.26,3255.99,599.83,594.17,10.52,0000 0000 0000 0000 000000
2017-03-29 09:39:30,0.07,0.85,0.00,22.81,26.23,30.12,14.49,48.95,1013.18,2035.00,3195.79,2852.25,3254.75,599.93,594.28,10.57,0000 0000 0000 0000 000000
2017-03-29 09:44:31,0.06,0.85,0.00,22.88,26.25,30.14,14.49,48.88,1013.20,2035.00,3194.55,2851.26,3253.69,599.63,594.01,10.62,0000 0000 0000 0000 000000
2017-03-29 09:49:33,0.06,0.86,0.00,22.90,26.27,30.18,14.48,48.97,1013.20,2034.98,3193.26,2850.32,3252.58,600.28,594.50,10.67,0000 0000 0000 0000 000000
2017-03-29 09:54:34,0.06,0.86,0.00,22.90,26.30,30.20,14.49,48.83,1013.27,2034.97,3191.94,2849.38,3251.48,600.06,594.32,10.72,0000 0000 0000 0000 000000
2017-03-29 09:59:35,0.06,0.86,0.00,22.95,26.32,30.21,14.51,48.82,1013.55,2034.94,3190.61,2848.50,3250.36,599.96,594.47,10.77,0000 0000 0000 0000 000000
2017-03-29 10:04:36,0.04,0.87,0.00,23.02,26.34,30.27,14.51,48.79,1013.68,2034.74,3189.33,2847.50,3249.26,600.02,594.35,10.82,0000 0000 0000 0000 000000
2017-03-29 10:09:37,0.03,0.87,0.00,23.00,26.36,30.28,14.55,48.77,1013.69,2034.46,3188.02,2846.58,3248.19,600.15,594.48,10.87,0000 0000 0000 0000 000000
2017-03-29 10:14:38,0.04,0.87,0.00,23.04,26.39,30.32,14.53,48.84,1013.69,2034.15,3186.73,2845.60,3247.05,600.16,594.52,10.92,0000 0000 0000 0000 000000
2017-03-29 10:19:40,0.06,0.87,0.00,23.11,26.41,30.33,14.50,48.83,1013.67,2034.02,3185.38,2844.58,3245.80,600.10,594.25,10.97,0000 0000 0000 0000 000000
2017-03-29 10:24:41,0.05,0.88,0.00,23.11,26.44,30.35,14.52,48.78,1013.68,2034.00,3184.11,2843.65,3244.71,599.99,594.13,11.02,0000 0000 0000 0000 000000
2017-03-29 10:29:42,0.07,0.88,0.00,23.14,26.46,30.37,14.49,48.80,1013.69,2034.00,3182.79,2842.70,3243.61,600.21,594.24,11.07,0000 0000 0000 0000 000000
2017-03-29 10:34:44,0.06,0.89,0.00,23.20,26.49,30.41,14.49,48.81,1013.69,2034.00,3181.44,2841.73,3242.41,600.19,594.06,11.12,0000 0000 0000 0000 000000
2017-03-29 10:39:45,0.06,0.89,0.00,23.21,26.51,30.42,14.53,48.84,1013.69,2033.99,3180.17,2840.77,3241.39,599.87,593.73,11.17,0000 0000 0000 0000 000000
2017-03-29 10:44:46,0.05,0.89,0.00,23.23,26.54,30.47,14.52,48.73,1013.69,2033.94,3178.85,2839.87,3240.31,600.35,594.17,11.22,0000 0000 0000 0000 000000
2017-03-29 10:49:47,0.04,0.89,0.00,23.29,26.56,30.51,14.50,48.79,1013.69,2033.71,3177.52,2838.89,3239.12,599.85,593.59,11.27,0000 0000 0000 0000 000000
2017-03-29 10:54:49,0.02,0.90,0.00,23.32,26.59,30.50,14.46,48.88,1013.69,2033.20,3176.16,2837.83,3237.88,599.82,593.49,11.32,0000 0000 0000 0000 000000
2017-03-29 10:59:50,0.06,0.90,0.00,23.31,26.62,30.53,14.47,48.92,1013.57,2033.05,3174.77,2836.85,3236.74,599.93,593.55,11.37,0000 0000 0000 0000 000000
2017-03-29 11:04:51,0.06,0.90,0.00,23.36,26.64,30.57,14.50,48.91,1013.40,2033.00,3173.44,2835.90,3235.54,600.16,593.75,11.42,0000 0000 0000 0000 000000
2017-03-29 11:09:53,0.06,0.91,0.00,23.39,26.67,30.62,14.47,48.98,1013.26,2033.00,3172.06,2834.95,3234.45,600.15,593.44,11.47,0000 0000 0000 0000 000000
2017-03-29 11:14:54,0.07,0.91,0.00,23.37,26.70,30.63,14.49,48.93,1013.22,2033.00,3170.68,2833.95,3233.29,600.16,593.41,11.52,0000 0000 0000 0000 000000
2017-03-29 11:19:55,0.07,0.91,0.00,23.38,26.72,30.64,14.48,49.13,1013.20,2032.99,3169.28,2832.90,3232.06,599.68,592.98,11.57,0000 0000 0000 0000 000000
2017-03-29 11:24:56,0.07,0.92,0.00,23.45,26.75,30.64,14.46,49.13,1013.19,2032.97,3167.86,2831.88,3230.86,599.89,593.10,11.62,0000 0000 0000 0000 000000
2017-03-29 11:29:58,0.04,0.92,0.00,23.42,26.78,30.72,14.47,49.21,1013.20,2032.75,3166.44,2830.85,3229.66,600.09,593.35,11.67,0000 0000 0000 0000 000000
2017-03-29 11:34:59,0.04,0.92,0.00,23.43,26.80,30.73,14.47,49.13,1013.20,2032.24,3164.91,2829.82,3228.41,599.91,593.07,11.72,0000 0000 0000 0000 000000
2017-03-29 11:40:00,0.05,0.92,0.00,23.49,26.83,30.78,14.43,48.96,1013.46,2032.07,3163.52,2828.87,3227.28,600.10,593.34,11.77,0000 0000 0000 0000 000000
2017-03-29 11:45:02,0.07,0.93,0.00,23.51,26.86,30.79,14.44,48.82,1013.68,2032.05,3162.09,2827.86,3226.14,599.49,592.80,11.83,0000 0000 0000 0000 000000
2017-03-29 11:50:03,0.07,0.93,0.00,23.47,26.88,30.82,14.51,48.96,1013.69,2032.00,3160.69,2826.83,3224.92,600.35,593.77,11.88,0000 0000 0000 0000 000000
2017-03-29 11:55:04,0.08,0.93,0.00,23.54,26.90,30.85,14.43,48.86,1013.69,2032.00,3159.23,2825.76,3223.68,600.01,593.29,11.93,0000 0000 0000 0000 000000
2017-03-29 12:00:06,0.07,0.94,0.00,23.54,26.92,30.83,14.47,48.78,1013.69,2032.00,3157.73,2824.79,3222.46,600.25,593.43,11.98,0000 0000 0000 0000 000000
2017-03-29 12:05:07,0.07,0.94,0.00,23.52,26.95,30.86,14.43,48.77,1013.74,2032.00,3156.27,2823.73,3221.29,599.66,593.01,12.03,0000 0000 0000 0000 000000
2017-03-29 12:10:08,0.08,0.95,0.00,23.56,26.97,30.90,14.48,48.83,1013.98,2031.97,3154.70,2822.62,3219.99,600.07,593.49,12.08,0000 0000 0000 0000 000000
2017-03-29 12:15:10,0.05,0.95,0.00,23.58,26.99,30.91,14.48,48.79,1014.05,2031.85,3153.29,2821.60,3218.76,600.12,593.48,12.13,0000 0000 0000 0000 000000
2017-03-29 12:20:11,0.07,0.95,0.00,23.58,27.02,30.92,14.45,48.81,1013.80,2031.67,3151.84,2820.62,3217.65,599.85,593.07,12.18,0000 0000 0000 0000 000000
2017-03-29 12:25:13,0.02,0.95,0.00,23.62,27.04,30.90,14.49,48.82,1013.70,2031.38,3150.51,2819.64,3216.53,600.73,593.80,12.23,0000 0000 0000 0000 000000
2017-03-29 12:30:14,0.05,0.96,0.00,23.64,27.06,30.94,14.48,49.06,1013.69,2031.09,3149.16,2818.74,3215.42,599.92,593.00,12.28,0000 0000 0000 0000 000000
2017-03-29 12:35:15,0.07,0.96,0.00,23.63,27.08,31.00,14.42,49.14,1013.68,2031.02,3147.75,2817.71,3214.30,599.58,592.73,12.33,0000 0000 0000 0000 000000
2017-03-29 12:40:16,0.06,0.96,0.00,23.68,27.10,31.04,14.50,49.22,1013.68,2031.00,3146.42,2816.75,3213.15,599.90,592.86,12.38,0000 0000 0000 0000 000000
2017-03-29 12:45:18,0.06,0.97,0.00,23.70,27.12,31.07,14.51,49.02,1013.69,2031.00,3144.99,2815.87,3211.98,600.06,593.00,12.43,0000 0000 0000 0000 000000
2017-03-29 12:50:19,0.07,0.97,0.00,23.65,27.15,31.07,14.46,48.89,1013.69,2031.00,3143.64,2814.92,3210.83,600.04,593.21,12.48,0000 0000 0000 0000 000000
2017-03-29 12:55:21,0.07,0.97,0.00,23.66,27.16,31.07,14.53,48.87,1013.80,2030.97,3142.24,2813.92,3209.68,600.24,593.30,12.53,0000 0000 0000 0000 000000
2017-03-29 13:00:22,0.06,0.98,0.00,23.70,27.18,31.06,14.47,48.73,1014.13,2030.96,3140.85,2812.98,3208.61,599.92,593.19,12.58,0000 0000 0000 0000 000000